| time (UTC) | temp F | wind direction | speed knots | gust knots | rain 1hr in | rain 24hr in | rain mn in | humidity % | barometer mb |
| 20260502152305 | 56 | 42 | 0.0 | 0.0 | 0.00 | 0.01 | 0.01 | 72 | 1015.0 |
| 20260502151802 | 55 | 60 | 0.0 | 0.0 | 0.00 | 0.01 | 0.01 | 72 | 1015.1 |
| 20260502151259 | 55 | 50 | 0.0 | 0.0 | 0.00 | 0.01 | 0.01 | 74 | 1015.0 |
| 20260502150757 | 55 | 27 | 0.9 | 0.9 | 0.00 | 0.01 | 0.01 | 75 | 1015.1 |
| 20260502150253 | 55 | 38 | 0.0 | 0.0 | 0.00 | 0.01 | 0.01 | 73 | 1015.1 |
| 20260502130636 | 53 | 79 | 0.0 | 0.0 | 0.00 | 0.01 | 0.01 | 86 | 1015.5 |
| 20260502130134 | 53 | 57 | 0.0 | 0.0 | 0.00 | 0.01 | 0.01 | 86 | 1015.4 |
| 20260502123620 | 52 | 56 | 0.9 | 1.7 | 0.00 | 0.01 | 0.01 | 90 | 1015.3 |
| 20260502123116 | 51 | 27 | 0.0 | 0.0 | 0.00 | 0.01 | 0.01 | 91 | 1015.3 |
| 20260502122613 | 51 | 56 | 0.0 | 0.0 | 0.00 | 0.01 | 0.01 | 93 | 1015.2 |
| 20260502122109 | 51 | 48 | 0.0 | 0.0 | 0.00 | 0.01 | 0.01 | 93 | 1015.2 |
| 20260502121607 | 51 | 37 | 0.0 | 0.0 | 0.00 | 0.01 | 0.01 | 94 | 1015.0 |
| 20260502121059 | 51 | 78 | 0.0 | 0.0 | 0.00 | 0.01 | 0.01 | 94 | 1015.0 |
| 20260502120555 | 51 | 48 | 0.0 | 0.0 | 0.00 | 0.01 | 0.01 | 95 | 1015.2 |
| 20260502115550 | 51 | 61 | 0.0 | 0.0 | 0.00 | 0.01 | 0.01 | 95 | 1015.2 |
| 20260502115045 | 51 | 62 | 0.0 | 0.0 | 0.00 | 0.01 | 0.01 | 95 | 1015.4 |
| 20260502114542 | 51 | 57 | 0.0 | 0.0 | 0.00 | 0.01 | 0.01 | 95 | 1015.3 |
| 20260502114039 | 51 | 7 | 0.0 | 0.0 | 0.00 | 0.01 | 0.01 | 95 | 1015.1 |
| 20260502113537 | 51 | 269 | 1.7 | 2.6 | 0.00 | 0.01 | 0.01 | 95 | 1015.2 |
| 20260502113035 | 50 | 59 | 0.0 | 0.0 | 0.00 | 0.01 | 0.01 | 95 | 1015.1 |
| 20260502112533 | 50 | 130 | 0.0 | 0.0 | 0.00 | 0.01 | 0.01 | 95 | 1014.9 |
| 20260502112030 | 50 | 117 | 0.0 | 0.0 | 0.00 | 0.01 | 0.01 | 95 | 1014.8 |
| 20260502111527 | 50 | 112 | 0.9 | 0.9 | 0.00 | 0.01 | 0.01 | 95 | 1015.0 |
| 20260502111025 | 50 | 95 | 0.0 | 0.0 | 0.00 | 0.01 | 0.01 | 95 | 1014.9 |
| 20260502110522 | 50 | 94 | 0.0 | 0.0 | 0.00 | 0.01 | 0.01 | 95 | 1014.7 |
| 20260502110020 | 50 | 89 | 0.0 | 0.0 | 0.00 | 0.01 | 0.01 | 95 | 1014.4 |
| 20260502105517 | 50 | 66 | 0.0 | 0.9 | 0.00 | 0.01 | 0.01 | 95 | 1014.4 |
| 20260502105014 | 50 | 96 | 1.7 | 1.7 | 0.05 | 0.01 | 0.01 | 94 | 1014.6 |
| 20260502104511 | 50 | 139 | 1.7 | 1.7 | 0.05 | 0.01 | 0.01 | 93 | 1014.6 |
| 20260502104009 | 50 | 59 | 0.0 | 0.0 | 0.00 | 0.00 | 0.00 | 92 | 1014.5 |
| 20260502103506 | 50 | 64 | 0.0 | 0.0 | 0.00 | 0.00 | 0.00 | 91 | 1014.9 |
| 20260502103004 | 50 | 89 | 0.0 | 0.0 | 0.00 | 0.00 | 0.00 | 91 | 1014.8 |
| 20260502102500 | 50 | 73 | 0.0 | 0.0 | 0.00 | 0.00 | 0.00 | 90 | 1015.0 |
| 20260502101956 | 50 | 65 | 0.0 | 0.0 | 0.00 | 0.00 | 0.00 | 90 | 1014.7 |
| 20260502101455 | 50 | 126 | 0.0 | 0.0 | 0.00 | 0.00 | 0.00 | 90 | 1014.9 |
| 20260502100953 | 50 | 91 | 0.0 | 0.0 | 0.00 | 0.00 | 0.00 | 89 | 1014.8 |
| 20260502100452 | 50 | 286 | 1.7 | 2.6 | 0.00 | 0.00 | 0.00 | 89 | 1015.0 |
| 20260502091426 | 51 | 232 | 1.7 | 2.6 | 0.00 | 0.00 | 0.00 | 87 | 1014.4 |
| 20260502090923 | 51 | 186 | 2.6 | 2.6 | 0.00 | 0.00 | 0.00 | 87 | 1014.5 |
| 20260502090420 | 51 | 86 | 1.7 | 2.6 | 0.00 | 0.00 | 0.00 | 86 | 1014.7 |
| 20260502071315 | 51 | 199 | 3.5 | 3.5 | 0.00 | 0.00 | 0.00 | 87 | 1015.0 |
| 20260502070813 | 51 | 193 | 2.6 | 3.5 | 0.00 | 0.00 | 0.00 | 87 | 1015.0 |
| 20260502070310 | 51 | 197 | 1.7 | 2.6 | 0.00 | 0.00 | 0.00 | 87 | 1014.9 |
| 20260502065809 | 51 | 233 | 3.5 | 5.2 | 0.00 | 0.00 | 0.00 | 87 | 1015.0 |
| 20260502065307 | 51 | 219 | 1.7 | 2.6 | 0.00 | 0.00 | 0.00 | 87 | 1014.9 |
| 20260502064804 | 51 | 262 | 2.6 | 2.6 | 0.00 | 0.00 | 0.00 | 87 | 1015.0 |
| 20260502064302 | 51 | 272 | 2.6 | 3.5 | 0.00 | 0.00 | 0.00 | 86 | 1015.0 |
| 20260502063759 | 51 | 241 | 4.3 | 6.1 | 0.00 | 0.00 | 0.00 | 86 | 1015.1 |
| 20260502063258 | 51 | 205 | 2.6 | 2.6 | 0.00 | 0.00 | 0.00 | 86 | 1014.8 |
| 20260502062754 | 51 | 227 | 2.6 | 3.5 | 0.00 | 0.00 | 0.00 | 85 | 1014.8 |
| 20260502062251 | 51 | 174 | 3.5 | 3.5 | 0.00 | 0.00 | 0.00 | 84 | 1015.1 |
| 20260502061750 | 51 | 156 | 1.7 | 2.6 | 0.00 | 0.00 | 0.00 | 84 | 1015.0 |
| 20260502061248 | 51 | 184 | 1.7 | 2.6 | 0.00 | 0.00 | 0.00 | 84 | 1015.0 |
| 20260502060747 | 51 | 152 | 0.9 | 1.7 | 0.00 | 0.00 | 0.00 | 84 | 1015.5 |
| 20260502060243 | 51 | 236 | 2.6 | 3.5 | 0.00 | 0.00 | 0.00 | 84 | 1015.5 |
| 20260502055742 | 51 | 185 | 1.7 | 1.7 | 0.00 | 0.00 | 0.00 | 84 | 1015.5 |
| 20260502055239 | 51 | 147 | 0.9 | 1.7 | 0.00 | 0.00 | 0.00 | 84 | 1015.2 |
| 20260502054738 | 51 | 110 | 0.9 | 0.9 | 0.00 | 0.00 | 0.00 | 84 | 1015.3 |
| 20260502054235 | 51 | 110 | 0.0 | 0.9 | 0.00 | 0.00 | 0.00 | 83 | 1015.0 |
| 20260502053733 | 51 | 111 | 0.0 | 0.0 | 0.00 | 0.00 | 0.00 | 83 | 1014.9 |
| 20260502053229 | 51 | 197 | 1.7 | 1.7 | 0.00 | 0.00 | 0.00 | 82 | 1014.9 |
| 20260502052727 | 51 | 215 | 3.5 | 5.2 | 0.00 | 0.00 | 0.00 | 82 | 1015.0 |
| 20260502052225 | 51 | 191 | 3.5 | 3.5 | 0.00 | 0.00 | 0.00 | 81 | 1014.8 |
| 20260502051723 | 51 | 224 | 2.6 | 2.6 | 0.00 | 0.00 | 0.00 | 81 | 1015.0 |
| 20260502051221 | 52 | 194 | 3.5 | 5.2 | 0.00 | 0.00 | 0.00 | 80 | 1014.8 |
| 20260502050717 | 52 | 194 | 2.6 | 3.5 | 0.00 | 0.00 | 0.00 | 79 | 1015.1 |
| 20260502050214 | 52 | 191 | 1.7 | 2.6 | 0.00 | 0.00 | 0.00 | 78 | 1015.3 |
| 20260502045711 | 52 | 163 | 0.0 | 0.9 | 0.00 | 0.00 | 0.00 | 77 | 1015.2 |
| 20260502045208 | 52 | 144 | 0.0 | 0.0 | 0.00 | 0.00 | 0.00 | 77 | 1014.9 |
| 20260502044704 | 52 | 149 | 0.9 | 0.9 | 0.00 | 0.00 | 0.00 | 76 | 1015.1 |
| 20260502044200 | 52 | 243 | 0.0 | 1.7 | 0.00 | 0.00 | 0.00 | 77 | 1015.2 |
| 20260502043658 | 52 | 168 | 0.9 | 1.7 | 0.00 | 0.00 | 0.00 | 77 | 1015.2 |
| 20260502043156 | 52 | 155 | 0.9 | 0.9 | 0.00 | 0.00 | 0.00 | 77 | 1015.2 |
| 20260502042655 | 52 | 166 | 0.9 | 1.7 | 0.00 | 0.00 | 0.00 | 76 | 1015.2 |
| 20260502042152 | 52 | 246 | 3.5 | 3.5 | 0.00 | 0.00 | 0.00 | 76 | 1015.1 |
| 20260502041650 | 52 | 95 | 1.7 | 2.6 | 0.00 | 0.00 | 0.00 | 76 | 1015.4 |
| 20260502041147 | 52 | 234 | 2.6 | 3.5 | 0.00 | 0.00 | 0.00 | 76 | 1015.6 |
| 20260502040644 | 52 | 178 | 2.6 | 2.6 | 0.00 | 0.00 | 0.00 | 75 | 1015.4 |
| 20260502040141 | 52 | 176 | 2.6 | 2.6 | 0.00 | 0.00 | 0.00 | 75 | 1015.2 |
| 20260502035637 | 52 | 264 | 3.5 | 6.1 | 0.00 | 0.00 | 0.00 | 75 | 1015.5 |
| 20260502035134 | 52 | 253 | 6.1 | 7.0 | 0.00 | 0.00 | 0.00 | 75 | 1015.2 |
| 20260502034632 | 52 | 168 | 0.9 | 1.7 | 0.00 | 0.00 | 0.00 | 77 | 1015.1 |
| 20260502034130 | 52 | 199 | 2.6 | 3.5 | 0.00 | 0.00 | 0.00 | 78 | 1015.1 |
| 20260502033628 | 52 | 211 | 3.5 | 6.1 | 0.00 | 0.00 | 0.00 | 78 | 1014.9 |
| 20260502033125 | 52 | 134 | 1.7 | 1.7 | 0.00 | 0.00 | 0.00 | 79 | 1015.2 |
| 20260502032621 | 52 | 218 | 2.6 | 3.5 | 0.00 | 0.00 | 0.00 | 79 | 1015.3 |
| 20260502032118 | 51 | 279 | 4.3 | 6.1 | 0.00 | 0.00 | 0.00 | 80 | 1015.3 |
| 20260502031615 | 51 | 192 | 3.5 | 3.5 | 0.00 | 0.00 | 0.00 | 81 | 1015.3 |
| 20260502031113 | 51 | 186 | 3.5 | 5.2 | 0.00 | 0.00 | 0.00 | 82 | 1015.6 |
| 20260502030612 | 51 | 211 | 4.3 | 5.2 | 0.00 | 0.00 | 0.00 | 82 | 1015.5 |
| 20260502030110 | 51 | 194 | 3.5 | 3.5 | 0.00 | 0.00 | 0.00 | 83 | 1015.4 |
| 20260502025606 | 51 | 278 | 3.5 | 3.5 | 0.00 | 0.00 | 0.00 | 83 | 1015.6 |
| 20260502025105 | 51 | 222 | 4.3 | 5.2 | 0.00 | 0.00 | 0.00 | 83 | 1015.7 |
| 20260502024602 | 50 | 234 | 4.3 | 7.8 | 0.00 | 0.00 | 0.00 | 84 | 1015.7 |
| 20260502024100 | 50 | 281 | 1.7 | 2.6 | 0.00 | 0.00 | 0.00 | 84 | 1015.7 |
| 20260502023557 | 51 | 290 | 2.6 | 3.5 | 0.00 | 0.00 | 0.00 | 83 | 1015.8 |
| 20260502023054 | 51 | 217 | 6.1 | 7.8 | 0.00 | 0.00 | 0.00 | 83 | 1015.7 |
| 20260502022551 | 51 | 211 | 5.2 | 7.8 | 0.00 | 0.00 | 0.00 | 83 | 1015.6 |
| 20260502022049 | 51 | 210 | 1.7 | 2.6 | 0.00 | 0.00 | 0.00 | 83 | 1015.7 |
| 20260502021546 | 51 | 249 | 3.5 | 5.2 | 0.00 | 0.00 | 0.00 | 83 | 1015.7 |
| 20260502021043 | 51 | 251 | 3.5 | 5.2 | 0.00 | 0.00 | 0.00 | 83 | 1015.7 |
| 20260502020540 | 51 | 225 | 0.9 | 2.6 | 0.00 | 0.00 | 0.00 | 83 | 1015.8 |
| 20260502020037 | 51 | 226 | 3.5 | 5.2 | 0.00 | 0.00 | 0.00 | 83 | 1015.5 |
| 20260502015535 | 51 | 219 | 5.2 | 7.0 | 0.00 | 0.00 | 0.00 | 83 | 1015.7 |
| 20260502015031 | 51 | 206 | 4.3 | 6.1 | 0.00 | 0.00 | 0.00 | 82 | 1015.6 |
| 20260502014528 | 51 | 222 | 6.1 | 7.0 | 0.00 | 0.00 | 0.00 | 82 | 1015.7 |
| 20260502014025 | 51 | 167 | 3.5 | 5.2 | 0.00 | 0.00 | 0.00 | 82 | 1015.6 |
| 20260502013520 | 51 | 225 | 5.2 | 7.0 | 0.00 | 0.00 | 0.00 | 81 | 1015.4 |
| 20260502013017 | 51 | 138 | 1.7 | 3.5 | 0.00 | 0.00 | 0.00 | 80 | 1015.5 |
| 20260502012515 | 51 | 228 | 2.6 | 3.5 | 0.00 | 0.00 | 0.00 | 80 | 1015.2 |
| 20260502012012 | 51 | 203 | 7.0 | 7.8 | 0.00 | 0.00 | 0.00 | 79 | 1015.5 |
| 20260502011508 | 51 | 237 | 5.2 | 7.8 | 0.00 | 0.00 | 0.00 | 78 | 1015.2 |
| 20260502011005 | 51 | 241 | 5.2 | 7.0 | 0.00 | 0.00 | 0.00 | 77 | 1015.1 |
| 20260502010503 | 52 | 235 | 4.3 | 6.1 | 0.00 | 0.00 | 0.00 | 76 | 1015.2 |
| 20260502005958 | 52 | 144 | 0.0 | 0.9 | 0.00 | 0.00 | 0.00 | 75 | 1015.1 |
| 20260502005456 | 52 | 194 | 7.8 | 8.7 | 0.00 | 0.00 | 0.00 | 74 | 1015.1 |
| 20260502004954 | 52 | 164 | 4.3 | 7.0 | 0.00 | 0.00 | 0.00 | 73 | 1015.2 |
| 20260502004449 | 52 | 186 | 1.7 | 1.7 | 0.00 | 0.00 | 0.00 | 73 | 1015.3 |
| 20260502003947 | 52 | 206 | 3.5 | 3.5 | 0.00 | 0.00 | 0.00 | 72 | 1015.2 |
| 20260502003444 | 53 | 234 | 3.5 | 3.5 | 0.00 | 0.00 | 0.00 | 72 | 1014.8 |
| 20260502002940 | 52 | 219 | 7.0 | 9.6 | 0.00 | 0.00 | 0.00 | 72 | 1015.1 |
| 20260502002437 | 52 | 205 | 5.2 | 7.0 | 0.00 | 0.00 | 0.00 | 72 | 1015.3 |
| 20260502001935 | 52 | 215 | 4.3 | 6.1 | 0.00 | 0.00 | 0.00 | 75 | 1015.2 |
| 20260502001432 | 52 | 230 | 4.3 | 5.2 | 0.00 | 0.00 | 0.00 | 76 | 1015.0 |
| 20260502000930 | 52 | 238 | 5.2 | 7.0 | 0.00 | 0.00 | 0.00 | 76 | 1015.2 |
| 20260502000428 | 52 | 216 | 1.7 | 1.7 | 0.00 | 0.00 | 0.00 | 77 | 1014.8 |
| 20260501235924 | 52 | 160 | 3.5 | 6.1 | 0.00 | 0.00 | 0.00 | 77 | 1014.8 |
| 20260501235420 | 52 | 228 | 2.6 | 3.5 | 0.00 | 0.00 | 0.00 | 77 | 1014.7 |
| 20260501234915 | 52 | 179 | 3.5 | 5.2 | 0.00 | 0.00 | 0.00 | 77 | 1014.7 |
| 20260501234412 | 52 | 227 | 5.2 | 6.1 | 0.00 | 0.00 | 0.00 | 76 | 1014.7 |
| 20260501233911 | 52 | 206 | 3.5 | 6.1 | 0.00 | 0.00 | 0.00 | 76 | 1014.7 |
| 20260501233408 | 52 | 236 | 3.5 | 6.1 | 0.00 | 0.00 | 0.00 | 75 | 1015.0 |
| 20260501232903 | 53 | 157 | 2.6 | 3.5 | 0.00 | 0.00 | 0.00 | 74 | 1014.8 |
| 20260501232401 | 53 | 227 | 3.5 | 5.2 | 0.00 | 0.00 | 0.00 | 73 | 1014.5 |
| 20260501231858 | 53 | 221 | 6.1 | 7.0 | 0.00 | 0.00 | 0.00 | 73 | 1014.5 |
| 20260501231356 | 53 | 202 | 5.2 | 7.0 | 0.00 | 0.00 | 0.00 | 72 | 1014.4 |
| 20260501230854 | 53 | 218 | 7.8 | 9.6 | 0.00 | 0.00 | 0.00 | 71 | 1014.7 |
| 20260501230353 | 53 | 189 | 2.6 | 3.5 | 0.00 | 0.00 | 0.00 | 71 | 1014.3 |
| 20260501225849 | 54 | 157 | 2.6 | 2.6 | 0.00 | 0.00 | 0.00 | 70 | 1014.4 |
| 20260501225347 | 54 | 238 | 2.6 | 3.5 | 0.00 | 0.00 | 0.00 | 70 | 1014.4 |
| 20260501224843 | 55 | 229 | 3.5 | 5.2 | 0.00 | 0.00 | 0.00 | 70 | 1014.5 |
| 20260501224341 | 54 | 240 | 5.2 | 7.0 | 0.00 | 0.00 | 0.00 | 69 | 1014.4 |
| 20260501223837 | 54 | 242 | 8.7 | 9.6 | 0.00 | 0.00 | 0.00 | 70 | 1014.4 |
| 20260501223333 | 54 | 212 | 7.0 | 8.7 | 0.00 | 0.00 | 0.00 | 70 | 1014.4 |
| 20260501222829 | 55 | 229 | 6.1 | 7.0 | 0.00 | 0.00 | 0.00 | 70 | 1014.5 |
| 20260501222326 | 55 | 207 | 7.8 | 8.7 | 0.00 | 0.00 | 0.00 | 68 | 1014.6 |
| 20260501221823 | 55 | 205 | 7.8 | 9.6 | 0.00 | 0.00 | 0.00 | 68 | 1014.7 |
| 20260501221320 | 55 | 192 | 2.6 | 3.5 | 0.00 | 0.00 | 0.00 | 68 | 1014.5 |
| 20260501220818 | 55 | 247 | 4.3 | 7.0 | 0.00 | 0.00 | 0.00 | 68 | 1014.5 |
| 20260501220315 | 55 | 198 | 7.8 | 11.3 | 0.00 | 0.00 | 0.00 | 67 | 1014.4 |
| 20260501215812 | 55 | 170 | 7.0 | 11.3 | 0.00 | 0.00 | 0.00 | 67 | 1014.5 |
| 20260501215307 | 55 | 221 | 9.6 | 12.2 | 0.00 | 0.00 | 0.00 | 66 | 1014.6 |
| 20260501214803 | 55 | 157 | 11.3 | 14.8 | 0.00 | 0.00 | 0.00 | 65 | 1014.5 |
| 20260501214259 | 55 | 185 | 8.7 | 12.2 | 0.00 | 0.00 | 0.00 | 65 | 1014.6 |
| 20260501213755 | 55 | 248 | 9.6 | 13.9 | 0.00 | 0.00 | 0.00 | 64 | 1014.3 |
| 20260501213252 | 56 | 222 | 7.8 | 9.6 | 0.00 | 0.00 | 0.00 | 63 | 1014.3 |
| 20260501212748 | 56 | 205 | 7.8 | 9.6 | 0.00 | 0.00 | 0.00 | 62 | 1014.3 |
| 20260501212244 | 56 | 235 | 4.3 | 6.1 | 0.00 | 0.00 | 0.00 | 62 | 1014.2 |
| 20260501211742 | 57 | 202 | 6.1 | 7.0 | 0.00 | 0.00 | 0.00 | 60 | 1014.5 |
| 20260501211238 | 56 | 204 | 8.7 | 9.6 | 0.00 | 0.00 | 0.00 | 59 | 1014.4 |
| 20260501210736 | 56 | 200 | 5.2 | 7.0 | 0.00 | 0.00 | 0.00 | 59 | 1014.2 |
| 20260501210232 | 57 | 230 | 8.7 | 12.2 | 0.00 | 0.00 | 0.00 | 58 | 1014.5 |
| 20260501205729 | 56 | 221 | 7.0 | 7.8 | 0.00 | 0.00 | 0.00 | 58 | 1014.5 |
| 20260501205225 | 57 | 220 | 12.2 | 13.9 | 0.00 | 0.00 | 0.00 | 57 | 1014.2 |
| 20260501204723 | 57 | 207 | 6.1 | 7.8 | 0.00 | 0.00 | 0.00 | 57 | 1014.2 |
| 20260501204220 | 58 | 226 | 7.8 | 8.7 | 0.00 | 0.00 | 0.00 | 54 | 1014.1 |
| 20260501203715 | 59 | 206 | 11.3 | 13.9 | 0.00 | 0.00 | 0.00 | 52 | 1014.1 |
| 20260501203213 | 60 | 221 | 5.2 | 7.0 | 0.00 | 0.00 | 0.00 | 50 | 1014.2 |
| 20260501202710 | 59 | 196 | 7.0 | 8.7 | 0.00 | 0.00 | 0.00 | 47 | 1013.9 |
| 20260501202207 | 59 | 236 | 7.0 | 8.7 | 0.00 | 0.00 | 0.00 | 48 | 1013.8 |
| 20260501201704 | 60 | 207 | 7.0 | 8.7 | 0.00 | 0.00 | 0.00 | 48 | 1013.9 |
| 20260501201200 | 59 | 254 | 3.5 | 7.0 | 0.00 | 0.00 | 0.00 | 48 | 1014.1 |
| 20260501200657 | 60 | 224 | 8.7 | 9.6 | 0.00 | 0.00 | 0.00 | 48 | 1014.2 |
| 20260501200155 | 59 | 211 | 7.8 | 9.6 | 0.00 | 0.00 | 0.00 | 50 | 1013.8 |
| 20260501195652 | 60 | 182 | 9.6 | 13.0 | 0.00 | 0.00 | 0.00 | 49 | 1014.0 |
| 20260501195148 | 61 | 228 | 7.0 | 8.7 | 0.00 | 0.00 | 0.00 | 52 | 1014.0 |
| 20260501194643 | 62 | 287 | 0.9 | 2.6 | 0.00 | 0.00 | 0.00 | 48 | 1013.7 |
| 20260501194139 | 63 | 181 | 7.0 | 8.7 | 0.00 | 0.00 | 0.00 | 45 | 1013.6 |
| 20260501193636 | 63 | 257 | 3.5 | 3.5 | 0.00 | 0.00 | 0.00 | 43 | 1013.8 |
| 20260501193135 | 62 | 274 | 4.3 | 6.1 | 0.00 | 0.00 | 0.00 | 43 | 1014.3 |
| 20260501192632 | 62 | 192 | 1.7 | 1.7 | 0.00 | 0.00 | 0.00 | 43 | 1014.0 |
| 20260501192129 | 63 | 246 | 7.0 | 11.3 | 0.00 | 0.00 | 0.00 | 43 | 1014.0 |
| 20260501191626 | 62 | 219 | 6.1 | 7.8 | 0.00 | 0.00 | 0.00 | 42 | 1014.1 |
| 20260501191123 | 62 | 230 | 2.6 | 5.2 | 0.00 | 0.00 | 0.00 | 43 | 1014.1 |
| 20260501190620 | 62 | 267 | 0.9 | 0.9 | 0.00 | 0.00 | 0.00 | 41 | 1014.4 |
| 20260501190115 | 63 | 33 | 2.6 | 5.2 | 0.00 | 0.00 | 0.00 | 40 | 1014.3 |
| 20260501185611 | 62 | 1 | 1.7 | 3.5 | 0.00 | 0.00 | 0.00 | 43 | 1014.5 |
| 20260501185107 | 61 | 199 | 0.0 | 0.9 | 0.00 | 0.00 | 0.00 | 43 | 1014.5 |
| 20260501184603 | 61 | 284 | 2.6 | 3.5 | 0.00 | 0.00 | 0.00 | 45 | 1014.5 |
| 20260501184058 | 62 | 327 | 2.6 | 5.2 | 0.00 | 0.00 | 0.00 | 44 | 1014.4 |
| 20260501183555 | 63 | 339 | 1.7 | 5.2 | 0.00 | 0.00 | 0.00 | 42 | 1014.6 |
| 20260501183051 | 60 | 161 | 5.2 | 7.0 | 0.00 | 0.00 | 0.00 | 45 | 1014.5 |
| 20260501182548 | 61 | 207 | 7.8 | 11.3 | 0.00 | 0.00 | 0.00 | 44 | 1014.6 |
| 20260501182045 | 62 | 230 | 5.2 | 7.8 | 0.00 | 0.00 | 0.00 | 46 | 1014.5 |
| 20260501181542 | 61 | 260 | 6.1 | 8.7 | 0.00 | 0.00 | 0.00 | 45 | 1014.5 |
| 20260501181039 | 62 | 230 | 6.1 | 8.7 | 0.00 | 0.00 | 0.00 | 44 | 1014.6 |
| 20260501180537 | 63 | 259 | 3.5 | 5.2 | 0.00 | 0.00 | 0.00 | 39 | 1014.6 |
| 20260501180033 | 63 | 297 | 3.5 | 6.1 | 0.00 | 0.00 | 0.00 | 37 | 1014.7 |
| 20260501175529 | 63 | 340 | 0.9 | 0.9 | 0.00 | 0.00 | 0.00 | 36 | 1014.8 |
| 20260501175026 | 61 | 351 | 1.7 | 2.6 | 0.00 | 0.00 | 0.00 | 37 | 1014.6 |
| 20260501174524 | 60 | 332 | 0.0 | 0.0 | 0.00 | 0.00 | 0.00 | 38 | 1014.8 |
| 20260501174021 | 61 | 244 | 3.5 | 5.2 | 0.00 | 0.00 | 0.00 | 38 | 1014.8 |
| 20260501173518 | 61 | 56 | 3.5 | 7.0 | 0.00 | 0.00 | 0.00 | 38 | 1015.0 |
| 20260501173015 | 60 | 31 | 1.7 | 1.7 | 0.00 | 0.00 | 0.00 | 38 | 1014.9 |
| 20260501172510 | 61 | 23 | 2.6 | 3.5 | 0.00 | 0.00 | 0.00 | 38 | 1014.8 |
| 20260501172006 | 61 | 277 | 2.6 | 3.5 | 0.00 | 0.00 | 0.00 | 38 | 1015.4 |
| 20260501171503 | 60 | 241 | 1.7 | 3.5 | 0.00 | 0.00 | 0.00 | 39 | 1014.8 |
| 20260501170959 | 60 | 4 | 0.9 | 1.7 | 0.00 | 0.00 | 0.00 | 38 | 1015.2 |
| 20260501170456 | 61 | 288 | 1.7 | 2.6 | 0.00 | 0.00 | 0.00 | 38 | 1015.0 |
| 20260501165953 | 61 | 227 | 0.9 | 2.6 | 0.00 | 0.00 | 0.00 | 41 | 1015.1 |
| 20260501165451 | 58 | 124 | 0.0 | 0.0 | 0.00 | 0.00 | 0.00 | 40 | 1015.1 |
| 20260501164948 | 59 | 22 | 4.3 | 6.1 | 0.00 | 0.00 | 0.00 | 41 | 1015.4 |
| 20260501164446 | 60 | 24 | 1.7 | 3.5 | 0.00 | 0.00 | 0.00 | 39 | 1015.2 |
| 20260501163943 | 59 | 348 | 3.5 | 3.5 | 0.00 | 0.00 | 0.00 | 41 | 1015.2 |
| 20260501163438 | 60 | 3 | 1.7 | 2.6 | 0.00 | 0.00 | 0.00 | 38 | 1015.3 |
| 20260501162936 | 60 | 283 | 1.7 | 2.6 | 0.00 | 0.00 | 0.00 | 39 | 1015.5 |
| 20260501162432 | 60 | 15 | 0.0 | 0.9 | 0.00 | 0.00 | 0.00 | 39 | 1015.4 |
| 20260501161929 | 60 | 38 | 0.0 | 0.9 | 0.00 | 0.00 | 0.00 | 41 | 1015.8 |
| 20260501161426 | 60 | 344 | 2.6 | 5.2 | 0.00 | 0.00 | 0.00 | 40 | 1015.5 |
| 20260501160922 | 58 | 42 | 0.9 | 2.6 | 0.00 | 0.00 | 0.00 | 40 | 1015.8 |
| 20260501160419 | 58 | 58 | 1.7 | 2.6 | 0.00 | 0.00 | 0.00 | 41 | 1015.6 |
| 20260501155917 | 58 | 42 | 0.0 | 0.0 | 0.00 | 0.00 | 0.00 | 42 | 1015.8 |
| 20260501155414 | 58 | 38 | 0.9 | 2.6 | 0.00 | 0.00 | 0.00 | 41 | 1015.8 |